Location: Vancouver
(49.2500°N, 123.1330°W)
Time: 04:42:33
(UTC-08:00)

deb Explorer IX - Visible Passes

Search period start: 10 December 2016 00:00
Search period end: 20 December 2016 00:00
Orbit: 549 x 1123 km, 38.8° (Epoch: 09 December)

Date Brightness Start Highest point End Pass type
(mag) Time Alt. Az. Time Alt. Az. Time Alt. Az.
10 Dec ? 03:57:34 26° SSE 03:57:34 26° SSE 04:02:43 10° ESE visible
10 Dec ? 05:39:11 19° SW 05:43:39 36° S 05:49:56 10° ESE visible
11 Dec ? 03:40:06 24° SE 03:40:06 24° SE 03:44:02 10° ESE visible
11 Dec ? 05:21:42 25° SW 05:24:54 36° S 05:31:16 10° ESE visible
11 Dec ? 07:05:32 10° WSW 07:11:41 30° SSW 07:17:25 10° SE visible
12 Dec ? 03:22:34 20° ESE 03:22:34 20° ESE 03:25:20 10° ESE visible
12 Dec ? 05:04:10 32° SSW 05:06:06 37° S 05:12:34 10° ESE visible
12 Dec ? 06:46:44 10° WSW 06:52:54 29° SSW 06:58:43 10° SE visible
13 Dec ? 03:04:59 16° ESE 03:04:59 16° ESE 03:06:36 10° ESE visible
13 Dec ? 04:46:34 36° SSW 04:47:18 37° S 04:53:51 10° ESE visible
13 Dec ? 06:28:10 11° WSW 06:34:06 29° SSW 06:39:59 10° SE visible
14 Dec ? 02:47:21 12° ESE 02:47:21 12° ESE 02:47:50 10° ESE visible
14 Dec ? 04:28:57 36° S 04:28:57 36° S 04:35:06 10° ESE visible
14 Dec ? 06:10:33 15° WSW 06:15:18 29° SSW 06:21:14 10° SE visible
15 Dec ? 04:11:19 33° SSE 04:11:19 33° SSE 04:16:19 10° ESE visible
15 Dec ? 05:52:55 19° WSW 05:56:29 28° SSW 06:02:26 10° SE visible
16 Dec ? 03:53:40 27° SE 03:53:40 27° SE 03:57:29 10° ESE visible
16 Dec ? 05:35:17 23° SW 05:37:39 28° SSW 05:43:36 10° SE visible
16 Dec ? 07:21:13 10° WSW 07:23:52 12° SW 07:26:29 10° SSW visible
17 Dec ? 03:36:03 21° SE 03:36:03 21° SE 03:38:39 10° ESE visible
17 Dec ? 05:17:39 26° SW 05:18:48 27° SSW 05:24:44 10° SSE visible
17 Dec ? 07:02:41 10° WSW 07:05:01 12° SW 07:07:21 10° SSW visible
18 Dec ? 03:18:26 15° SE 03:18:26 15° SE 03:19:47 10° ESE visible
18 Dec ? 05:00:01 26° SSW 05:00:01 26° SSW 05:05:50 10° SSE visible
18 Dec ? 06:44:14 10° SW 06:46:09 11° SW 06:48:04 10° SSW visible
19 Dec ? 03:00:50 10° ESE 03:00:50 10° ESE 03:00:54 10° ESE visible
19 Dec ? 04:42:26 24° S 04:42:26 24° S 04:46:54 10° SSE visible
19 Dec ? 06:25:59 10° SW 06:27:17 10° SW 06:28:34 10° SSW visible
